This is the latest recevied weather packets stored in our database for station/object OE3MHU-13. If no packets are shown the sender has not sent any weather packets the latest 10 day(s).
| Time | Temp. | Humidity | Pressure | Rain* | Wind** | Luminosity | Snow |
|---|---|---|---|---|---|---|---|
| 1787919870 | 30.56° C | 44% | 1013.3 hPa | 0 mm | - | - | - |
| 1787919563 | 30.56° C | 44% | 1013.4 hPa | 0 mm | - | - | - |
| 1787919257 | 30.56° C | 44% | 1013.5 hPa | 0 mm | - | - | - |
| 1787918950 | 30.56° C | 45% | 1013.5 hPa | 0 mm | - | - | - |
| 1787918645 | 30° C | 45% | 1013.7 hPa | 0 mm | - | - | - |
| 1787918338 | 30° C | 45% | 1013.7 hPa | 0 mm | - | - | - |
| 1787918033 | 30° C | 46% | 1013.9 hPa | 0 mm | - | - | - |
| 1787917727 | 30° C | 45% | 1013.8 hPa | 0 mm | - | - | - |
| 1787917423 | 29.44° C | 46% | 1013.7 hPa | 0 mm | - | - | - |
| 1787917115 | 29.44° C | 47% | 1013.8 hPa | 0 mm | - | - | - |
| 1787916810 | 29.44° C | 47% | 1013.9 hPa | 0 mm | - | - | - |
| 1787916502 | 29.44° C | 47% | 1014.2 hPa | 0 mm | - | - | - |
| 1787916197 | 29.44° C | 47% | 1014.3 hPa | 0 mm | - | - | - |
| 1787915891 | 29.44° C | 47% | 1014.4 hPa | 0 mm | - | - | - |
| 1787915585 | 29.44° C | 48% | 1014.4 hPa | 0 mm | - | - | - |
| 1787915279 | 28.89° C | 49% | 1014.4 hPa | 0 mm | - | - | - |
| 1787914973 | 28.89° C | 49% | 1014.6 hPa | 0 mm | - | - | - |
| 1787914667 | 28.33° C | 49% | 1014.8 hPa | 0 mm | - | - | - |
| 1787914365 | 28.89° C | 48% | 1014.4 hPa | 0 mm | - | - | - |
| 1787914065 | 28.33° C | 49% | 1014.7 hPa | 0 mm | - | - | - |
| 1787913763 | 28.33° C | 51% | 1014.8 hPa | 0 mm | - | - | - |
| 1787913463 | 27.78° C | 52% | 1015 hPa | 0 mm | - | - | - |
| 1787913163 | 27.78° C | 51% | 1015.2 hPa | 0 mm | - | - | - |
| 1787912861 | 27.78° C | 52% | 1015.3 hPa | 0 mm | - | - | - |
| 1787912562 | 27.22° C | 52% | 1015.4 hPa | 0 mm | - | - | - |
* Rain latest hour (hover to see other rain measurements)
** Current wind speed in m/s (hover to see current wind gust speed)